User: anonymous   Login
Location: Unspecified
(0.0000°N, 0.0000°E)
Time: 02:49:33
(UTC+00:00)
Language:

Uribyol 2 - Orbit

View from above orbital plane
View from above orbital plane
View from above satellite
View from above satellite

Ground track
Ground track

The orbit data is extracted from the following two-line orbital elements,

1 22828U 93061F   17232.35570467 +.00000003 +00000-0 +18466-4 0  9995
2 22828 098.8033 197.5460 0010969 101.1473 259.0943 14.30644172214886
Epoch (UTC): 20 August 2017 08:32:12
Eccentricity: 0.0010969
inclination: 98.8033°
perigee height: 782 km
apogee height: 797 km
right ascension of ascending node: 197.5460°
argument of perigee: 101.1473°
revolutions per day: 14.30644172
mean anomaly at epoch: 259.0943°
orbit number at epoch: 21488

The dashed part of the orbit path shows where the satellite is in the earth's shadow,  

DLR